Flag for Germany Weather past 2 weeks in Limburg an der Lahn, Hesse, Germany

Now
37 °F

Passing clouds.


Feels Like: 30 °F
Forecast: 34 / 48 °F
Wind: 12 mph from South

Location: Hessen

Current Time: Feb 28, 2015 at 5:15:57 PM

Latest Report: Feb 28, 2015 at 4:50 PM


Visibility: N/A

Pressure: 29.98 "Hg

Humidity: 65%

Dew point: 27 °F

Location of Limburg an der LahnLocation

Historic Weather in Limburg an der Lahn — Graph

°F

Limburg an der Lahn temperature yesterday

Maximum temperature yesterday: 34 °F (at 9:50 AM)
Minimum temperature yesterday: 32 °F (at 7:50 AM)
Average temperature yesterday: 33 °F

Past Weeks' High & Low Weather Summary

 TemperatureHumidityPressure
High88 °F (Feb 19, 5:50 PM)100% (Feb 13, 3:20 PM)30.69 "Hg (Feb 13, 3:20 PM)
Low27 °F (Feb 14, 7:20 AM)60% (Feb 22, 2:20 PM)29.36 "Hg (Feb 21, 7:50 AM)
Average33 °F94%29.95 "Hg
* Reported Feb 13 3:20 PM — Feb 28 3:50 PM, Limburg an der Lahn, Weather by CustomWeather, © 2015

Note: Actual official high and low records may vary slightly from our data, if they occured in-between our weather recording intervals... More about our weather records

Advertising

Limburg an der Lahn weather history for previous 24 hours

 ConditionsComfort  
Time TempWeatherWind HumidityBarometerVisibility
3:50 PM
Sat, Feb 28
37 °FPassing clouds.10 mph65%30.01 "HgN/A
2:50 PM37 °FPassing clouds.10 mph65%30.01 "HgN/A
2:20 PM37 °FScattered clouds.8 mph65%30.04 "HgN/A
1:50 PM36 °FScattered clouds.12 mph65%30.04 "HgN/A
1:20 PM36 °FScattered clouds.13 mph70%30.04 "HgN/A
12:50 PM36 °FScattered clouds.12 mph70%30.07 "HgN/A
12:20 PM34 °FScattered clouds.12 mph75%30.07 "HgN/A
11:50 AM32 °FScattered clouds.9 mph87%30.07 "HgN/A
11:20 AM32 °FScattered clouds.10 mph93%30.07 "HgN/A
10:50 AM30 °FPartly sunny.9 mph100%30.09 "Hg4 mi
10:20 AM30 °FPartly sunny.10 mph100%30.09 "Hg4 mi
9:50 AM28 °FIce fog.8 mph100%30.09 "Hg2 mi
9:20 AM28 °FIce fog.8 mph100%30.09 "Hg1 mi
8:50 AM28 °FIce fog.7 mph100%30.09 "Hg1 mi
8:20 AM27 °FIce fog.6 mph100%30.09 "Hg0 mi
7:50 AM27 °FIce fog.7 mph100%30.09 "Hg0 mi
8:50 PM
Fri, Feb 27
34 °FClear.13 mph93%30.04 "Hg10 mi
8:20 PM32 °FClear.9 mph100%30.04 "Hg10 mi
7:50 PM34 °FClear.12 mph93%30.01 "Hg10 mi
7:20 PM34 °FPassing clouds.10 mph100%30.01 "HgN/A
6:50 PM34 °FPassing clouds.10 mph100%30.01 "HgN/A
6:20 PM34 °FLight snow. Passing clouds.10 mph100%29.98 "Hg4 mi
5:50 PM34 °FSnow. Partly sunny.12 mph100%29.98 "Hg2 mi
5:20 PM34 °FSnow. Partly sunny.13 mph100%29.98 "Hg2 mi
Weather by CustomWeather, © 2015

See weather overviewHow to use our weather pages